Location: Muenchen
(48.1800°N, 11.5800°E)
Time: 13:22:37
(UTC+02:00)

Sich 1 Rocket - Visible Passes

Search period start: 31 July 2015 00:00
Search period end: 10 August 2015 00:00
Orbit: 618 x 653 km, 82.5° (Epoch: 31 July)

Date Brightness Start Highest point End Pass type
(mag) Time Alt. Az. Time Alt. Az. Time Alt. Az.
31 Jul 7.1 21:30:49 10° W 21:33:07 13° WNW 21:35:15 10° NNW visible
03 Aug 6.9 05:04:40 10° NNE 05:07:20 15° ENE 05:10:08 10° E visible
06 Aug 7.0 04:34:19 10° NNE 04:36:25 13° ENE 04:38:43 10° E visible
07 Aug 6.4 04:55:40 10° NNE 04:59:19 23° ENE 05:03:03 10° ESE visible
08 Aug 5.2 05:17:40 10° N 05:22:04 42° ENE 05:26:26 10° SSE visible
09 Aug 7.0 04:04:12 10° NE 04:05:29 11° ENE 04:07:01 10° ENE visible
